This is the latest recevied weather packets stored in our database for station/object YM7KGL-1. If no packets are shown the sender has not sent any weather packets the latest 10 day(s).
| Time | Temp. | Humidity | Pressure | Rain* | Wind** | Luminosity | Snow |
|---|---|---|---|---|---|---|---|
| 1777883875 | 17.78° C | 54% | 1005.3 hPa | - | - | - | - |
| 1777883322 | 17.22° C | 54% | 1005.4 hPa | - | - | - | - |
| 1777882975 | 17.22° C | 54% | 1005.4 hPa | - | - | - | - |
| 1777882345 | 16.67° C | 54% | 1005.6 hPa | - | - | - | - |
| 1777881445 | 16.11° C | 55% | 1005.6 hPa | - | - | - | - |
| 1777880545 | 14.44° C | 56% | 1005.5 hPa | - | - | - | - |
| 1777879644 | 13.89° C | 56% | 1005.6 hPa | - | - | - | - |
| 1777878985 | 13.33° C | 55% | 1005.3 hPa | - | - | - | - |
| 1777878085 | 13.33° C | 55% | 1005.3 hPa | - | - | - | - |
| 1777877184 | 13.33° C | 56% | 1005 hPa | - | - | - | - |
| 1777876284 | 12.78° C | 56% | 1004.8 hPa | - | - | - | - |
| 1777875398 | 12.78° C | 56% | 1005.2 hPa | - | - | - | - |
| 1777874498 | 12.22° C | 55% | 1005.3 hPa | - | - | - | - |
| 1777873597 | 12.22° C | 56% | 1005.4 hPa | - | - | - | - |
| 1777872931 | 12.22° C | 56% | 1005.3 hPa | - | - | - | - |
| 1777872697 | 12.22° C | 56% | 1005.3 hPa | - | - | - | - |
| 1777871956 | 11.67° C | 56% | 1005.1 hPa | - | - | - | - |
| 1777871055 | 11.67° C | 56% | 1004.7 hPa | - | - | - | - |
| 1777870155 | 11.67° C | 56% | 1005.1 hPa | - | - | - | - |
| 1777869819 | 11.11° C | 56% | 1004.9 hPa | - | - | - | - |
| 1777869255 | 11.11° C | 56% | 1004.9 hPa | - | - | - | - |
| 1777868426 | 11.11° C | 56% | 1004.9 hPa | - | - | - | - |
| 1777867525 | 11.11° C | 56% | 1004.6 hPa | - | - | - | - |
| 1777866839 | 10° C | 57% | 1004.7 hPa | - | - | - | - |
| 1777866624 | 10.56° C | 57% | 1004.7 hPa | - | - | - | - |
* Rain since midnight (hover to see other rain measurements)
** Current wind speed in m/s (hover to see current wind gust speed)